Find OPS 9326

NORAD ID: 2653 Int'l Des: 1967-003 Owner: AFSSD Country: US operational
MEOCIRCULAR

現在のビュー

3D地球を読み込み中...

About OPS 9326

OPS 9326 (NORAD 2653) is a satellite by AFSSD of US. It operates in MEO, CIRCULAR orbit

次回通過

Passes for default location (London). Set your location on the main map for personalized predictions.

高度履歴

Loading altitude history...

軌道要素

1 2653U 67003F 26194.09438797 -.00000137 00000-0 00000+0 0 9992
2 2653 8.2328 45.9905 0045511 65.0600 295.4200 1.07749016132975
Epoch: Jul 13, 2026 • Age: 26 hours

現在のステータス

高度 33631.2 km
遠地点 / 近地点 N/A
速度 3.16 km/s
衛星直下点 6.67°N, 109.83°E
タイプ other

Most Searched